sat.trackr.live / text

‹ back to catalog

STARLINK-6306

NORAD 57242 · 2023-094AA

PAYLOAD ACTIVE UNKNOWN

§ Identity

Operator
Country
US
Launch date
2023-07-07
Launch site
AFWTR
Launch vehicle
Mass (kg)
RCS (m²)

Purposes: comms

External: N2YO · Heavens-Above · Gunter

§ Orbital elements

Epoch: 2026-05-25T03:58:39.108288Z

Period
94.27 min
Inclination
42.9992°
Eccentricity
0.0000258
Mean motion
15.27581177 rev/d
Perigee alt
482.9 km
Apogee alt
483.2 km
Semi-major
6,861.2 km
B*
5.6513e-5
RAAN
308.2044°
Arg perigee
249.2583°
Mean anomaly
110.8241°
Rev number
15,893

§ Raw data

STARLINK-63061 57242U 23094AA  26145.16573042  .00001294  00000+0  56513-4 0  99932 57242  42.9992 308.2044 0000258 249.2583 110.8241 15.27581177158933

JSON: /api/v1/satellites/57242 · /tle

For live sub-satellite position, see the globe view (requires WebGL).

§ Visibility from observer

Set your observer location to see the next 7 days of passes ≥ 10°. The values pass through the URL so the page stays shareable.

No JS? Fill the form by hand. The geolocation button needs JavaScript.